User: anonymous   Login
Location: Unspecified
(0.0000°N, 0.0000°E)
Time: 07:48:46
(UTC+00:00)
Language:

Nimbus 7 Rocket - Orbit

View from above orbital plane
View from above orbital plane
View from above satellite
View from above satellite

Ground track
Ground track

The orbit data is extracted from the following two-line orbital elements,

1 11081U 78098B   18112.66506658 -.00000054 +00000-0 -67787-5 0  9999
2 11081 099.5063 355.1905 0029095 166.9626 193.2287 13.85650096835409
Epoch (UTC): 22 April 2018 15:57:41
Eccentricity: 0.0029095
inclination: 99.5063°
perigee height: 922 km
apogee height: 965 km
right ascension of ascending node: 355.1905°
argument of perigee: 166.9626°
revolutions per day: 13.85650096
mean anomaly at epoch: 193.2287°
orbit number at epoch: 83540

The dashed part of the orbit path shows where the satellite is in the earth's shadow,  

DLR